Location: Carri�res
(48.9069°N, 2.1792°E)
Time: 13:16:41
(UTC+00:00)

COSMOS 2455 - Pass Details

Date: 17 January 2021
Orbit: 901 x 908 km, 67.1° (Epoch: 26 February)

Event Time Altitude Azimuth Distance (km) Brightness Sun altitude
Rises 17:29:50 0° 170° (S) 3,518 6.1 -10.4°
Reaches altitude 10° 17:32:50 10° 156° (SSE) 2,583 5.2 -10.8°
Maximum altitude 17:37:22 23° 107° (ESE) 1,837 4.0 -11.6°
Enters shadow 17:40:21 16° 69° (ENE) 2,199 4.2 -12.0°
